Simultaneous Nadir Overpasses (SNOs) Predictions

Prediction of SNOs between METOP-B and NPP Satellite Orbit:

Table of predicted SNOs for the next 14.0 days since TLE Epoch: 8/2/2013
Index Date (METOP-B) Time (METOP-B) Lat,Lon (METOP-B) SZA (METOP-B ) Date (NPP) Time (NPP) Lat,Lon (NPP) SZA (NPP ) Distance(km) Time Diff (sec)
1 08/02/2013 17:53:14 73.29, -94.89 55.81 08/02/2013 17:52:06 73.30, -97.49 55.98 82.98 68
2 08/02/2013 18:43:57 -73.26, 72.37 124.21 08/02/2013 18:42:49 -73.26, 69.93 124.06 78.05 68
3 08/02/2013 19:34:41 73.01,-120.83 55.58 08/02/2013 19:33:30 73.00,-122.20 55.67 44.52 71
4 08/02/2013 20:25:25 -72.94, 46.32 124.48 08/02/2013 20:24:13 -72.96, 45.21 124.38 36.39 72
5 08/02/2013 21:16:09 72.69,-146.86 55.31 08/02/2013 21:14:54 72.70,-146.94 55.35 2.87 75
6 08/02/2013 22:06:52 -72.66, 20.41 124.70 08/02/2013 22:05:37 -72.65, 20.47 124.69 2.08 75
7 08/02/2013 22:57:31 72.66,-172.25 55.31 08/02/2013 22:56:23 72.65,-172.21 55.31 2.20 68
8 08/02/2013 23:48:14 -72.64, -4.98 124.71 08/02/2013 23:47:07 -72.65, -4.90 124.68 3.09 67
9 08/03/2013 00:38:53 72.64, 162.37 55.31 08/03/2013 00:37:53 72.65, 162.42 55.33 1.90 60
10 08/03/2013 01:29:35 -72.66, -30.26 124.66 08/03/2013 01:28:37 -72.65, -30.28 124.66 1.32 58
11 08/03/2013 02:20:14 72.67, 137.09 55.35 08/03/2013 02:19:23 72.65, 137.05 55.35 2.64 51
12 08/03/2013 03:10:57 -72.64, -55.64 124.66 08/03/2013 03:10:07 -72.65, -55.65 124.64 1.42 50
13 08/03/2013 04:01:36 72.64, 111.70 55.35 08/03/2013 04:00:53 72.65, 111.67 55.37 0.97 43
14 08/03/2013 04:52:18 -72.67, -80.93 124.62 08/03/2013 04:51:37 -72.65, -81.03 124.62 3.74 41
15 08/03/2013 05:42:58 72.62, 86.31 55.35 08/03/2013 05:42:23 72.65, 86.30 55.38 2.91 35
16 08/03/2013 06:33:40 -72.65,-106.31 124.62 08/03/2013 06:33:07 -72.65,-106.40 124.60 3.06 33
17 08/03/2013 07:24:20 72.60, 60.93 55.35 08/03/2013 07:23:52 72.60, 61.03 55.35 3.33 28
18 08/03/2013 08:15:02 -72.62,-131.70 124.62 08/03/2013 08:14:36 -72.60,-131.67 124.64 2.42 26
19 08/03/2013 09:05:41 72.63, 35.64 55.39 08/03/2013 09:05:22 72.60, 35.65 55.37 3.32 19
20 08/03/2013 09:56:24 -72.60,-157.09 124.63 08/03/2013 09:56:06 -72.60,-157.05 124.62 1.30 18
21 08/03/2013 10:47:03 72.60, 10.26 55.39 08/03/2013 10:46:52 72.60, 10.28 55.38 1.00 11
22 08/03/2013 11:37:46 -72.58, 177.53 124.63 08/03/2013 11:37:36 -72.60, 177.58 124.60 3.28 10
23 08/03/2013 12:28:25 72.58, -15.13 55.39 08/03/2013 12:28:22 72.60, -15.10 55.40 2.13 3
24 08/03/2013 13:19:07 -72.61, 152.25 124.59 08/03/2013 13:19:06 -72.60, 152.20 124.58 1.43 1
25 08/03/2013 14:09:46 72.61, -40.41 55.43 08/03/2013 14:09:52 72.60, -40.47 55.42 2.35 6
26 08/03/2013 15:00:29 -72.58, 126.86 124.59 08/03/2013 15:00:36 -72.60, 126.83 124.57 2.50 7
27 08/03/2013 15:51:08 72.59, -65.80 55.43 08/03/2013 15:51:22 72.60, -65.85 55.44 2.07 14
28 08/03/2013 16:41:51 -72.56, 101.47 124.59 08/03/2013 16:42:05 -72.55, 101.56 124.60 2.90 14
29 08/03/2013 17:32:30 72.56, -91.19 55.43 08/03/2013 17:32:51 72.55, -91.12 55.40 2.85 21
30 08/03/2013 18:23:13 -72.54, 76.09 124.59 08/03/2013 18:23:35 -72.55, 76.18 124.58 3.62 22
31 08/03/2013 19:13:52 72.54,-116.57 55.42 08/03/2013 19:14:21 72.55,-116.49 55.42 2.76 29
32 08/03/2013 20:04:34 -72.57, 50.80 124.55 08/03/2013 20:05:05 -72.55, 50.81 124.57 1.36 31
33 08/03/2013 20:55:13 72.57,-141.86 55.47 08/03/2013 20:55:51 72.55,-141.87 55.44 2.31 38
34 08/03/2013 21:45:56 -72.54, 25.42 124.55 08/03/2013 21:46:35 -72.55, 25.43 124.55 1.30 39
35 08/03/2013 22:36:35 72.54,-167.24 55.47 08/03/2013 22:37:21 72.55,-167.24 55.46 0.31 46
36 08/03/2013 23:27:17 -72.57, 0.13 124.51 08/03/2013 23:28:05 -72.55, 0.06 124.53 3.19 48
37 08/04/2013 00:17:57 72.52, 167.37 55.46 08/04/2013 00:18:51 72.55, 167.38 55.48 2.92 54
38 08/04/2013 01:08:39 -72.55, -25.25 124.51 08/04/2013 01:09:35 -72.55, -25.32 124.51 2.28 56
39 08/04/2013 01:59:18 72.55, 142.09 55.51 08/04/2013 02:00:21 72.55, 142.01 55.50 2.69 63
40 08/04/2013 02:50:01 -72.52, -50.64 124.51 08/04/2013 02:51:04 -72.50, -50.59 124.55 2.92 63
41 08/04/2013 03:40:40 72.52, 116.70 55.51 08/04/2013 03:41:51 72.55, 116.63 55.51 3.32 71
42 08/04/2013 04:31:23
